| time (UTC) | temp F | wind direction | speed knots | gust knots | rain 1hr in | rain 24hr in | rain mn in | humidity % | barometer mb |
| 20260509174003 | 85 | 344 | 0.9 | 3.5 | 0.00 | 0.00 | 0.00 | 56 | 1009.9 |
| 20260509173503 | 86 | 324 | 0.9 | 4.3 | 0.00 | 0.00 | 0.00 | 56 | 1009.9 |
| 20260509173213 | 86 | 326 | 0.9 | 4.3 | 0.00 | 0.00 | 0.00 | 56 | 1010.0 |
| 20260509172503 | 85 | 328 | 0.9 | 3.5 | 0.00 | 0.00 | 0.00 | 56 | 1010.1 |
| 20260509172003 | 86 | 359 | 0.9 | 7.0 | 0.00 | 0.00 | 0.00 | 55 | 1010.1 |
| 20260509171503 | 85 | 345 | 0.9 | 7.0 | 0.00 | 0.00 | 0.00 | 56 | 1010.2 |
| 20260509171003 | 85 | 335 | 0.9 | 7.8 | 0.00 | 0.00 | 0.00 | 54 | 1010.2 |
| 20260509170503 | 85 | 318 | 0.9 | 7.8 | 0.00 | 0.00 | 0.00 | 55 | 1010.2 |
| 20260509170003 | 85 | 320 | 0.9 | 6.1 | 0.00 | 0.00 | 0.00 | 54 | 1010.2 |
| 20260509165503 | 85 | 307 | 0.9 | 6.1 | 0.00 | 0.00 | 0.00 | 56 | 1010.2 |
| 20260509165213 | 85 | 281 | 1.7 | 7.0 | 0.00 | 0.00 | 0.00 | 56 | 1010.2 |
| 20260509164503 | 85 | 273 | 1.7 | 7.0 | 0.00 | 0.00 | 0.00 | 55 | 1010.3 |
| 20260509164003 | 85 | 278 | 1.7 | 7.0 | 0.00 | 0.00 | 0.00 | 56 | 1010.4 |
| 20260509163503 | 85 | 321 | 1.7 | 7.0 | 0.00 | 0.00 | 0.00 | 56 | 1010.4 |
| 20260509163003 | 84 | 336 | 1.7 | 6.1 | 0.00 | 0.00 | 0.00 | 56 | 1010.5 |
| 20260509162503 | 84 | 331 | 0.9 | 4.3 | 0.00 | 0.00 | 0.00 | 57 | 1010.4 |
| 20260509162212 | 84 | 331 | 0.9 | 3.5 | 0.00 | 0.00 | 0.00 | 56 | 1010.5 |
| 20260509161713 | 84 | 325 | 0.9 | 6.1 | 0.00 | 0.00 | 0.00 | 57 | 1010.5 |
| 20260509161003 | 84 | 306 | 0.9 | 5.2 | 0.00 | 0.00 | 0.00 | 57 | 1010.4 |
| 20260509160503 | 84 | 307 | 1.7 | 6.1 | 0.00 | 0.00 | 0.00 | 56 | 1010.3 |
| 20260509160003 | 83 | 306 | 1.7 | 7.0 | 0.00 | 0.00 | 0.00 | 56 | 1010.3 |
| 20260509155503 | 83 | 300 | 1.7 | 7.0 | 0.00 | 0.00 | 0.00 | 57 | 1010.2 |
| 20260509155212 | 83 | 288 | 1.7 | 6.1 | 0.00 | 0.00 | 0.00 | 58 | 1010.1 |
| 20260509154503 | 83 | 294 | 1.7 | 5.2 | 0.00 | 0.00 | 0.00 | 60 | 1010.1 |
| 20260509154003 | 82 | 282 | 2.6 | 7.0 | 0.00 | 0.00 | 0.00 | 60 | 1010.2 |
| 20260509153503 | 82 | 280 | 2.6 | 7.0 | 0.00 | 0.00 | 0.00 | 58 | 1010.3 |
| 20260509153212 | 82 | 291 | 1.7 | 7.0 | 0.00 | 0.00 | 0.00 | 59 | 1010.3 |
| 20260509152503 | 82 | 312 | 1.7 | 5.2 | 0.00 | 0.00 | 0.00 | 62 | 1010.2 |
| 20260509152003 | 81 | 302 | 1.7 | 8.7 | 0.00 | 0.00 | 0.00 | 62 | 1010.3 |
| 20260509151503 | 81 | 287 | 1.7 | 8.7 | 0.00 | 0.00 | 0.00 | 63 | 1010.4 |
| 20260509151212 | 81 | 285 | 1.7 | 7.8 | 0.00 | 0.00 | 0.00 | 63 | 1010.3 |
| 20260509150503 | 80 | 271 | 1.7 | 7.8 | 0.00 | 0.00 | 0.00 | 63 | 1010.4 |
| 20260509150003 | 80 | 277 | 1.7 | 7.0 | 0.00 | 0.00 | 0.00 | 62 | 1010.4 |
| 20260509145503 | 80 | 290 | 1.7 | 7.0 | 0.00 | 0.00 | 0.00 | 63 | 1010.4 |
| 20260509145003 | 79 | 285 | 1.7 | 7.0 | 0.00 | 0.00 | 0.00 | 62 | 1010.4 |
| 20260509144713 | 79 | 283 | 1.7 | 6.1 | 0.00 | 0.00 | 0.00 | 63 | 1010.4 |
| 20260509144003 | 79 | 295 | 0.9 | 5.2 | 0.00 | 0.00 | 0.00 | 67 | 1010.5 |
| 20260509143503 | 78 | 288 | 1.7 | 5.2 | 0.00 | 0.00 | 0.00 | 66 | 1010.4 |
| 20260509143003 | 78 | 297 | 1.7 | 7.0 | 0.00 | 0.00 | 0.00 | 68 | 1010.5 |
| 20260509142503 | 77 | 308 | 0.9 | 7.0 | 0.00 | 0.00 | 0.00 | 70 | 1010.4 |
| 20260509142003 | 77 | 319 | 0.9 | 4.3 | 0.00 | 0.00 | 0.00 | 72 | 1010.4 |
| 20260509141503 | 77 | 333 | 0.9 | 4.3 | 0.00 | 0.00 | 0.00 | 74 | 1010.4 |
| 20260509141003 | 76 | 314 | 0.9 | 3.5 | 0.00 | 0.00 | 0.00 | 78 | 1010.4 |
| 20260509140503 | 76 | 328 | 0.0 | 3.5 | 0.00 | 0.00 | 0.00 | 80 | 1010.4 |
| 20260509140214 | 75 | 339 | 0.9 | 4.3 | 0.00 | 0.00 | 0.00 | 80 | 1010.4 |
| 20260509135503 | 74 | 316 | 0.9 | 4.3 | 0.00 | 0.00 | 0.00 | 82 | 1010.4 |
| 20260509135214 | 74 | 283 | 0.0 | 2.6 | 0.00 | 0.00 | 0.00 | 83 | 1010.4 |
| 20260509134503 | 74 | 275 | 0.9 | 5.2 | 0.00 | 0.00 | 0.00 | 84 | 1010.5 |
| 20260509134003 | 73 | 277 | 0.9 | 5.2 | 0.00 | 0.00 | 0.00 | 85 | 1010.4 |
| 20260509133503 | 73 | 282 | 0.9 | 5.2 | 0.00 | 0.00 | 0.00 | 85 | 1010.4 |
| 20260509133214 | 73 | 288 | 0.0 | 5.2 | 0.00 | 0.00 | 0.00 | 86 | 1010.3 |
| 20260509132503 | 72 | 271 | 0.9 | 5.2 | 0.00 | 0.00 | 0.00 | 87 | 1010.3 |
| 20260509132003 | 72 | 268 | 0.9 | 3.5 | 0.00 | 0.00 | 0.00 | 89 | 1010.4 |
| 20260509131712 | 71 | 269 | 0.9 | 3.5 | 0.00 | 0.00 | 0.00 | 89 | 1010.3 |
| 20260509131003 | 71 | 275 | 0.9 | 5.2 | 0.00 | 0.00 | 0.00 | 91 | 1010.3 |
| 20260509130712 | 70 | 271 | 1.7 | 5.2 | 0.00 | 0.01 | 0.00 | 91 | 1010.3 |
| 20260509130003 | 70 | 274 | 1.7 | 5.2 | 0.00 | 0.01 | 0.00 | 91 | 1010.4 |
| 20260509125503 | 69 | 275 | 1.7 | 6.1 | 0.00 | 0.01 | 0.00 | 92 | 1010.4 |
| 20260509125003 | 69 | 275 | 1.7 | 6.1 | 0.00 | 0.01 | 0.00 | 92 | 1010.3 |
| 20260509124503 | 69 | 276 | 0.9 | 3.5 | 0.00 | 0.01 | 0.00 | 92 | 1010.5 |
| 20260509124003 | 69 | 266 | 0.9 | 3.5 | 0.00 | 0.01 | 0.00 | 92 | 1010.3 |
| 20260509123503 | 68 | 274 | 0.9 | 3.5 | 0.00 | 0.01 | 0.00 | 92 | 1010.3 |
| 20260509123003 | 68 | 284 | 0.9 | 2.6 | 0.00 | 0.01 | 0.00 | 92 | 1010.2 |
| 20260509122503 | 68 | 288 | 0.9 | 3.5 | 0.00 | 0.01 | 0.00 | 93 | 1010.1 |
| 20260509122213 | 68 | 291 | 0.0 | 3.5 | 0.00 | 0.01 | 0.00 | 92 | 1010.1 |
| 20260509121503 | 68 | 302 | 0.0 | 1.7 | 0.00 | 0.01 | 0.00 | 92 | 1010.0 |
| 20260509121003 | 68 | 280 | 0.0 | 2.6 | 0.00 | 0.01 | 0.00 | 92 | 1010.0 |
| 20260509120503 | 68 | 281 | 0.9 | 3.5 | 0.00 | 0.01 | 0.00 | 92 | 1010.0 |
| 20260509120003 | 68 | 287 | 0.9 | 3.5 | 0.00 | 0.01 | 0.00 | 92 | 1009.9 |
| 20260509115503 | 68 | 294 | 0.9 | 3.5 | 0.00 | 0.01 | 0.00 | 92 | 1009.9 |
| 20260509115213 | 68 | 297 | 0.9 | 3.5 | 0.00 | 0.01 | 0.00 | 92 | 1009.9 |
| 20260509114503 | 68 | 300 | 0.9 | 3.5 | 0.00 | 0.01 | 0.00 | 92 | 1009.7 |
| 20260509114003 | 68 | 294 | 0.9 | 3.5 | 0.00 | 0.01 | 0.00 | 92 | 1009.7 |
| 20260509113503 | 68 | 279 | 0.9 | 5.2 | 0.00 | 0.01 | 0.00 | 91 | 1009.4 |
| 20260509113213 | 68 | 282 | 0.9 | 5.2 | 0.00 | 0.01 | 0.00 | 91 | 1009.3 |
| 20260509112503 | 68 | 287 | 0.9 | 4.3 | 0.00 | 0.01 | 0.00 | 90 | 1009.4 |
| 20260509112003 | 68 | 281 | 1.7 | 7.0 | 0.00 | 0.01 | 0.00 | 90 | 1009.3 |
| 20260509111503 | 68 | 268 | 1.7 | 7.0 | 0.00 | 0.01 | 0.00 | 90 | 1009.3 |
| 20260509111003 | 68 | 268 | 1.7 | 6.1 | 0.00 | 0.01 | 0.00 | 90 | 1009.2 |
| 20260509110503 | 68 | 279 | 1.7 | 6.1 | 0.00 | 0.01 | 0.00 | 90 | 1008.9 |
| 20260509110003 | 68 | 267 | 1.7 | 6.1 | 0.00 | 0.01 | 0.00 | 89 | 1009.0 |
| 20260509105503 | 68 | 263 | 1.7 | 7.8 | 0.00 | 0.01 | 0.00 | 89 | 1009.0 |
| 20260509105212 | 68 | 268 | 1.7 | 7.8 | 0.00 | 0.01 | 0.00 | 89 | 1008.9 |
| 20260509104503 | 68 | 261 | 1.7 | 5.2 | 0.00 | 0.01 | 0.00 | 89 | 1009.1 |
| 20260509104003 | 68 | 265 | 1.7 | 5.2 | 0.00 | 0.01 | 0.00 | 89 | 1008.8 |
| 20260509103503 | 68 | 264 | 1.7 | 5.2 | 0.00 | 0.01 | 0.00 | 89 | 1008.8 |
| 20260509103212 | 68 | 258 | 0.9 | 5.2 | 0.00 | 0.01 | 0.00 | 89 | 1008.9 |
| 20260509102503 | 68 | 259 | 0.0 | 1.7 | 0.00 | 0.02 | 0.00 | 88 | 1008.6 |
| 20260509102003 | 68 | 260 | 0.0 | 0.9 | 0.00 | 0.03 | 0.00 | 88 | 1008.4 |
| 20260509101503 | 68 | 260 | 0.0 | 1.7 | 0.00 | 0.12 | 0.00 | 87 | 1008.4 |
| 20260509101003 | 68 | 260 | 0.0 | 1.7 | 0.00 | 0.14 | 0.00 | 86 | 1008.5 |
| 20260509100503 | 68 | 0 | 0.0 | 0.0 | 0.00 | 0.18 | 0.00 | 86 | 1008.4 |
| 20260509100003 | 69 | 0 | 0.0 | 0.0 | 0.00 | 0.18 | 0.00 | 85 | 1008.4 |
| 20260509095503 | 70 | 0 | 0.0 | 0.0 | 0.00 | 0.18 | 0.00 | 84 | 1008.4 |
| 20260509095003 | 70 | 0 | 0.0 | 0.0 | 0.00 | 0.18 | 0.00 | 84 | 1008.2 |
| 20260509094503 | 70 | 260 | 0.0 | 0.9 | 0.00 | 0.18 | 0.00 | 83 | 1008.1 |
| 20260509094003 | 70 | 260 | 0.0 | 0.9 | 0.00 | 0.18 | 0.00 | 82 | 1008.1 |
| 20260509093503 | 71 | 260 | 0.0 | 0.9 | 0.00 | 0.18 | 0.00 | 82 | 1007.9 |
| 20260509093003 | 71 | 271 | 0.9 | 3.5 | 0.00 | 0.19 | 0.00 | 80 | 1007.7 |
| 20260509092503 | 71 | 276 | 0.9 | 3.5 | 0.00 | 0.19 | 0.00 | 79 | 1007.7 |
| 20260509092214 | 72 | 308 | 0.0 | 2.6 | 0.00 | 0.19 | 0.00 | 79 | 1007.7 |
| 20260509091503 | 72 | 346 | 0.9 | 6.1 | 0.00 | 0.19 | 0.00 | 78 | 1007.5 |
| 20260509091214 | 72 | 351 | 0.9 | 6.1 | 0.00 | 0.19 | 0.00 | 77 | 1007.5 |
| 20260509090713 | 72 | 360 | 0.0 | 5.2 | 0.00 | 0.19 | 0.00 | 76 | 1007.6 |
| 20260509090003 | 73 | 356 | 0.0 | 3.5 | 0.00 | 0.19 | 0.00 | 74 | 1007.6 |
| 20260509085503 | 73 | 295 | 0.9 | 4.3 | 0.00 | 0.19 | 0.00 | 73 | 1007.5 |
| 20260509085003 | 73 | 215 | 1.7 | 7.0 | 0.00 | 0.19 | 0.00 | 73 | 1007.6 |
| 20260509084713 | 73 | 226 | 2.6 | 7.8 | 0.00 | 0.19 | 0.00 | 74 | 1008.0 |
| 20260509084003 | 72 | 188 | 2.6 | 7.8 | 0.00 | 0.19 | 0.00 | 78 | 1008.0 |
| 20260509083503 | 71 | 144 | 3.5 | 7.8 | 0.00 | 0.19 | 0.00 | 82 | 1007.0 |
| 20260509083214 | 72 | 145 | 3.5 | 7.8 | 0.00 | 0.19 | 0.00 | 82 | 1005.5 |
| 20260509082503 | 72 | 139 | 3.5 | 10.4 | 0.00 | 0.20 | 0.00 | 81 | 1005.4 |
| 20260509082003 | 71 | 137 | 3.5 | 10.4 | 0.00 | 0.21 | 0.00 | 81 | 1004.9 |
| 20260509081503 | 71 | 161 | 2.6 | 7.8 | 0.00 | 0.21 | 0.00 | 81 | 1005.4 |
| 20260509081003 | 72 | 147 | 2.6 | 7.8 | 0.00 | 0.21 | 0.00 | 81 | 1006.1 |
| 20260509080503 | 72 | 129 | 3.5 | 7.8 | 0.00 | 0.21 | 0.00 | 81 | 1005.4 |
| 20260509080003 | 72 | 149 | 2.6 | 7.8 | 0.00 | 0.21 | 0.00 | 80 | 1006.0 |
| 20260509075503 | 71 | 172 | 2.6 | 9.6 | 0.00 | 0.21 | 0.00 | 84 | 1006.5 |
| 20260509075003 | 70 | 172 | 2.6 | 9.6 | 0.00 | 0.21 | 0.00 | 89 | 1007.1 |
| 20260509074712 | 70 | 173 | 2.6 | 7.8 | 0.00 | 0.21 | 0.00 | 90 | 1007.4 |
| 20260509074003 | 70 | 158 | 2.6 | 7.0 | 0.00 | 0.21 | 0.00 | 91 | 1008.0 |
| 20260509073503 | 70 | 195 | 2.6 | 6.1 | 0.00 | 0.22 | 0.00 | 92 | 1008.3 |
| 20260509073003 | 70 | 212 | 2.6 | 7.0 | 0.00 | 0.22 | 0.00 | 92 | 1008.5 |
| 20260509072503 | 70 | 206 | 2.6 | 7.0 | 0.00 | 0.24 | 0.00 | 92 | 1009.0 |
| 20260509072003 | 70 | 200 | 1.7 | 6.1 | 0.00 | 0.24 | 0.00 | 92 | 1009.1 |
| 20260509071503 | 70 | 181 | 2.6 | 8.7 | 0.00 | 0.25 | 0.00 | 92 | 1009.3 |
| 20260509071213 | 70 | 164 | 3.5 | 8.7 | 0.00 | 0.25 | 0.00 | 92 | 1009.3 |
| 20260509070712 | 70 | 180 | 2.6 | 8.7 | 0.00 | 0.27 | 0.00 | 92 | 1009.3 |
| 20260509070003 | 69 | 201 | 1.7 | 4.3 | 0.00 | 0.29 | 0.00 | 92 | 1009.6 |
| 20260509065712 | 69 | 209 | 1.7 | 4.3 | 0.00 | 0.29 | 0.00 | 92 | 1009.9 |
| 20260509065003 | 69 | 207 | 1.7 | 3.5 | 0.00 | 0.29 | 0.00 | 92 | 1010.2 |
| 20260509064503 | 69 | 188 | 0.9 | 3.5 | 0.00 | 0.29 | 0.00 | 92 | 1010.1 |
| 20260509064213 | 69 | 178 | 0.9 | 3.5 | 0.00 | 0.29 | 0.00 | 92 | 1010.1 |
| 20260509063503 | 69 | 214 | 0.9 | 2.6 | 0.00 | 0.29 | 0.00 | 92 | 1010.5 |
| 20260509063003 | 69 | 228 | 0.9 | 2.6 | 0.00 | 0.29 | 0.00 | 92 | 1010.6 |
| 20260509062503 | 68 | 234 | 0.9 | 2.6 | 0.00 | 0.29 | 0.00 | 92 | 1010.6 |
| 20260509062003 | 68 | 270 | 0.0 | 2.6 | 0.00 | 0.29 | 0.00 | 91 | 1010.5 |
| 20260509061503 | 69 | 251 | 0.9 | 2.6 | 0.00 | 0.29 | 0.00 | 91 | 1010.7 |
| 20260509061003 | 69 | 248 | 0.0 | 2.6 | 0.00 | 0.29 | 0.00 | 91 | 1010.8 |
| 20260509060503 | 69 | 273 | 0.0 | 2.6 | 0.00 | 0.29 | 0.00 | 91 | 1010.7 |
| 20260509060003 | 69 | 0 | 0.0 | 0.0 | 0.00 | 0.29 | 0.00 | 91 | 1010.6 |
| 20260509055503 | 69 | 140 | 0.0 | 0.9 | 0.00 | 0.29 | 0.00 | 90 | 1010.5 |
| 20260509055003 | 69 | 140 | 0.0 | 0.9 | 0.00 | 0.29 | 0.00 | 90 | 1010.5 |
| 20260509054503 | 69 | 140 | 0.9 | 2.6 | 0.00 | 0.29 | 0.00 | 90 | 1010.5 |
| 20260509054003 | 69 | 141 | 0.0 | 2.6 | 0.00 | 0.29 | 0.00 | 89 | 1010.2 |
| 20260509053503 | 70 | 307 | 0.0 | 1.7 | 0.00 | 0.29 | 0.00 | 89 | 1010.2 |
| 20260509053003 | 70 | 306 | 0.0 | 1.7 | 0.00 | 0.29 | 0.00 | 89 | 1010.7 |
| 20260509052713 | 70 | 306 | 0.0 | 1.7 | 0.00 | 0.29 | 0.00 | 88 | 1010.5 |
| 20260509052003 | 70 | 341 | 0.0 | 2.6 | 0.00 | 0.29 | 0.00 | 88 | 1011.0 |
| 20260509051713 | 71 | 331 | 0.9 | 6.1 | 0.00 | 0.29 | 0.00 | 88 | 1010.9 |
| 20260509051212 | 71 | 339 | 0.9 | 6.1 | 0.00 | 0.29 | 0.00 | 88 | 1011.1 |
| 20260509050503 | 71 | 343 | 0.9 | 4.3 | 0.00 | 0.29 | 0.00 | 87 | 1011.2 |
| 20260509050003 | 71 | 342 | 0.0 | 4.3 | 0.00 | 0.29 | 0.00 | 87 | 1011.3 |
| 20260509045503 | 71 | 327 | 0.0 | 1.7 | 0.00 | 0.29 | 0.29 | 88 | 1011.5 |
| 20260509045003 | 71 | 164 | 0.0 | 0.9 | 0.00 | 0.29 | 0.29 | 87 | 1011.0 |
| 20260509044503 | 71 | 163 | 0.0 | 0.9 | 0.00 | 0.29 | 0.29 | 87 | 1010.4 |
| 20260509044003 | 72 | 166 | 0.0 | 0.9 | 0.00 | 0.29 | 0.29 | 87 | 1010.0 |
| 20260509043713 | 72 | 166 | 0.0 | 0.9 | 0.00 | 0.29 | 0.29 | 87 | 1010.0 |
| 20260509043003 | 72 | 166 | 0.0 | 2.6 | 0.00 | 0.29 | 0.29 | 87 | 1009.8 |
| 20260509042503 | 72 | 149 | 0.9 | 2.6 | 0.00 | 0.29 | 0.29 | 86 | 1009.6 |
| 20260509042003 | 72 | 117 | 0.9 | 4.3 | 0.00 | 0.29 | 0.29 | 86 | 1009.5 |
| 20260509041503 | 72 | 128 | 0.9 | 4.3 | 0.00 | 0.29 | 0.29 | 86 | 1009.3 |
| 20260509041003 | 72 | 124 | 0.9 | 3.5 | 0.00 | 0.29 | 0.29 | 86 | 1009.2 |
| 20260509040503 | 72 | 123 | 0.9 | 3.5 | 0.00 | 0.29 | 0.29 | 86 | 1009.3 |
| 20260509040003 | 72 | 145 | 0.9 | 2.6 | 0.00 | 0.29 | 0.29 | 86 | 1009.3 |
| 20260509035503 | 72 | 133 | 0.9 | 2.6 | 0.00 | 0.29 | 0.29 | 86 | 1009.3 |
| 20260509035003 | 72 | 126 | 0.9 | 2.6 | 0.00 | 0.29 | 0.29 | 86 | 1009.5 |
| 20260509034503 | 72 | 112 | 0.9 | 2.6 | 0.00 | 0.29 | 0.29 | 85 | 1009.3 |
| 20260509034003 | 72 | 87 | 0.9 | 2.6 | 0.00 | 0.29 | 0.29 | 85 | 1009.5 |
| 20260509033503 | 72 | 64 | 0.9 | 2.6 | 0.00 | 0.29 | 0.29 | 85 | 1009.5 |
| 20260509033003 | 72 | 45 | 0.9 | 4.3 | 0.00 | 0.29 | 0.29 | 85 | 1009.5 |
| 20260509032503 | 72 | 31 | 0.9 | 5.2 | 0.00 | 0.29 | 0.29 | 84 | 1009.7 |
| 20260509032214 | 72 | 31 | 0.9 | 5.2 | 0.00 | 0.29 | 0.29 | 84 | 1009.9 |
| 20260509031503 | 72 | 24 | 0.0 | 1.7 | 0.00 | 0.29 | 0.29 | 84 | 1009.8 |
| 20260509031003 | 72 | 46 | 0.9 | 4.3 | 0.00 | 0.29 | 0.29 | 85 | 1009.6 |
| 20260509030503 | 72 | 50 | 0.9 | 4.3 | 0.00 | 0.29 | 0.29 | 85 | 1009.3 |
| 20260509030003 | 72 | 76 | 0.9 | 5.2 | 0.00 | 0.29 | 0.29 | 84 | 1009.0 |
| 20260509025503 | 72 | 108 | 1.7 | 6.1 | 0.00 | 0.29 | 0.29 | 84 | 1008.6 |
| 20260509025214 | 72 | 115 | 1.7 | 6.1 | 0.00 | 0.29 | 0.29 | 84 | 1008.4 |
| 20260509024503 | 73 | 116 | 1.7 | 7.0 | 0.00 | 0.29 | 0.29 | 84 | 1008.2 |
| 20260509024003 | 73 | 112 | 1.7 | 4.3 | 0.00 | 0.29 | 0.29 | 84 | 1008.3 |
| 20260509023503 | 73 | 121 | 1.7 | 5.2 | 0.00 | 0.29 | 0.29 | 84 | 1008.2 |
| 20260509023003 | 73 | 127 | 2.6 | 8.7 | 0.00 | 0.29 | 0.29 | 83 | 1008.0 |
| 20260509022503 | 73 | 124 | 2.6 | 8.7 | 0.00 | 0.29 | 0.29 | 83 | 1007.9 |
| 20260509022213 | 73 | 128 | 1.7 | 8.7 | 0.00 | 0.29 | 0.29 | 83 | 1007.8 |
| 20260509021503 | 73 | 136 | 1.7 | 3.5 | 0.00 | 0.29 | 0.29 | 83 | 1007.7 |
| 20260509021003 | 73 | 132 | 1.7 | 5.2 | 0.00 | 0.29 | 0.29 | 83 | 1007.7 |
| 20260509020712 | 73 | 133 | 1.7 | 5.2 | 0.00 | 0.29 | 0.29 | 83 | 1007.7 |
| 20260509020003 | 73 | 130 | 1.7 | 6.1 | 0.00 | 0.29 | 0.29 | 83 | 1007.6 |
| 20260509015712 | 73 | 128 | 1.7 | 6.1 | 0.00 | 0.29 | 0.29 | 82 | 1007.5 |
| 20260509015213 | 73 | 130 | 1.7 | 6.1 | 0.00 | 0.29 | 0.29 | 82 | 1007.5 |
| 20260509014503 | 73 | 131 | 1.7 | 4.3 | 0.00 | 0.29 | 0.29 | 82 | 1007.5 |
| 20260509014003 | 73 | 128 | 1.7 | 6.1 | 0.00 | 0.29 | 0.29 | 82 | 1007.5 |
| 20260509013712 | 73 | 130 | 1.7 | 6.1 | 0.00 | 0.29 | 0.29 | 81 | 1007.6 |
| 20260509013003 | 73 | 128 | 1.7 | 7.0 | 0.00 | 0.29 | 0.29 | 81 | 1007.8 |
| 20260509012503 | 74 | 124 | 2.6 | 7.0 | 0.00 | 0.29 | 0.29 | 80 | 1007.9 |
| 20260509012003 | 74 | 123 | 1.7 | 7.0 | 0.00 | 0.29 | 0.29 | 80 | 1007.9 |
| 20260509011714 | 74 | 126 | 1.7 | 7.0 | 0.00 | 0.29 | 0.29 | 80 | 1008.0 |
| 20260509011003 | 74 | 134 | 1.7 | 4.3 | 0.00 | 0.29 | 0.29 | 80 | 1008.0 |
| 20260509010503 | 74 | 141 | 0.9 | 3.5 | 0.00 | 0.29 | 0.29 | 80 | 1008.1 |
| 20260509010003 | 74 | 168 | 0.9 | 3.5 | 0.00 | 0.29 | 0.29 | 80 | 1008.0 |
| 20260509005503 | 74 | 143 | 0.9 | 4.3 | 0.00 | 0.29 | 0.29 | 80 | 1007.9 |
| 20260509005003 | 74 | 121 | 1.7 | 7.0 | 0.00 | 0.29 | 0.29 | 80 | 1007.8 |
| 20260509004503 | 74 | 126 | 2.6 | 7.0 | 0.00 | 0.29 | 0.29 | 80 | 1007.7 |
| 20260509004003 | 74 | 127 | 2.6 | 7.8 | 0.00 | 0.29 | 0.29 | 80 | 1007.6 |
| 20260509003503 | 74 | 130 | 2.6 | 7.8 | 0.00 | 0.29 | 0.29 | 79 | 1007.6 |
| 20260509003003 | 74 | 135 | 2.6 | 7.0 | 0.00 | 0.29 | 0.29 | 79 | 1007.4 |
| 20260509002714 | 74 | 127 | 2.6 | 7.0 | 0.00 | 0.29 | 0.29 | 79 | 1007.4 |
| 20260509002212 | 74 | 121 | 2.6 | 7.0 | 0.00 | 0.29 | 0.29 | 78 | 1007.5 |
| 20260509001503 | 74 | 131 | 2.6 | 7.0 | 0.00 | 0.29 | 0.29 | 78 | 1007.4 |
| 20260509001003 | 74 | 148 | 2.6 | 6.1 | 0.00 | 0.29 | 0.29 | 78 | 1007.3 |
| 20260509000714 | 74 | 157 | 1.7 | 6.1 | 0.00 | 0.29 | 0.29 | 77 | 1007.4 |
| 20260509000003 | 75 | 145 | 2.6 | 6.1 | 0.00 | 0.29 | 0.29 | 77 | 1007.5 |
| 20260508235503 | 75 | 129 | 2.6 | 7.0 | 0.00 | 0.29 | 0.29 | 76 | 1007.5 |
| 20260508235003 | 75 | 128 | 2.6 | 7.0 | 0.00 | 0.29 | 0.29 | 76 | 1007.5 |
| 20260508234503 | 75 | 131 | 1.7 | 6.1 | 0.00 | 0.29 | 0.29 | 76 | 1007.6 |
| 20260508234212 | 76 | 126 | 2.6 | 7.0 | 0.00 | 0.29 | 0.29 | 76 | 1007.8 |
| 20260508233503 | 75 | 126 | 2.6 | 7.0 | 0.00 | 0.29 | 0.29 | 76 | 1007.7 |
| 20260508233003 | 75 | 131 | 2.6 | 7.0 | 0.00 | 0.29 | 0.29 | 75 | 1007.7 |
| 20260508232503 | 76 | 141 | 2.6 | 7.0 | 0.00 | 0.29 | 0.29 | 75 | 1007.9 |
| 20260508232003 | 76 | 142 | 2.6 | 7.0 | 0.00 | 0.29 | 0.29 | 74 | 1007.9 |
| 20260508231713 | 76 | 134 | 2.6 | 7.8 | 0.00 | 0.29 | 0.29 | 74 | 1007.9 |
| 20260508231003 | 76 | 127 | 3.5 | 7.8 | 0.00 | 0.29 | 0.29 | 74 | 1007.9 |
| 20260508230713 | 76 | 128 | 2.6 | 6.1 | 0.00 | 0.29 | 0.29 | 74 | 1007.9 |
| 20260508230003 | 76 | 137 | 3.5 | 8.7 | 0.00 | 0.29 | 0.29 | 73 | 1007.7 |
| 20260508225503 | 76 | 133 | 2.6 | 8.7 | 0.00 | 0.29 | 0.29 | 73 | 1007.9 |
| 20260508225003 | 76 | 117 | 2.6 | 7.8 | 0.00 | 0.29 | 0.29 | 72 | 1007.8 |
| 20260508224503 | 76 | 123 | 3.5 | 9.6 | 0.00 | 0.29 | 0.29 | 72 | 1007.9 |
| 20260508224003 | 77 | 122 | 3.5 | 9.6 | 0.00 | 0.29 | 0.29 | 71 | 1007.8 |
| 20260508223503 | 77 | 121 | 4.3 | 9.6 | 0.00 | 0.29 | 0.29 | 72 | 1007.8 |
| 20260508223003 | 77 | 125 | 3.5 | 9.6 | 0.00 | 0.29 | 0.29 | 72 | 1007.9 |
| 20260508222713 | 77 | 124 | 3.5 | 9.6 | 0.00 | 0.29 | 0.29 | 71 | 1008.0 |
| 20260508222003 | 77 | 125 | 4.3 | 10.4 | 0.00 | 0.29 | 0.29 | 70 | 1007.9 |
| 20260508221503 | 78 | 122 | 4.3 | 12.2 | 0.00 | 0.29 | 0.29 | 69 | 1008.0 |
| 20260508221003 | 77 | 124 | 4.3 | 12.2 | 0.00 | 0.29 | 0.29 | 68 | 1008.0 |
| 20260508220713 | 78 | 124 | 5.2 | 12.2 | 0.00 | 0.29 | 0.29 | 68 | 1007.9 |
| 20260508220003 | 78 | 120 | 4.3 | 10.4 | 0.00 | 0.29 | 0.29 | 68 | 1007.9 |
| 20260508215503 | 78 | 115 | 3.5 | 7.8 | 0.00 | 0.29 | 0.29 | 67 | 1007.9 |
| 20260508215003 | 78 | 114 | 3.5 | 7.8 | 0.00 | 0.29 | 0.29 | 68 | 1008.0 |
| 20260508214713 | 78 | 122 | 3.5 | 7.8 | 0.00 | 0.29 | 0.29 | 68 | 1008.0 |
| 20260508214003 | 78 | 131 | 3.5 | 7.8 | 0.00 | 0.29 | 0.29 | 67 | 1008.0 |
| 20260508213503 | 78 | 126 | 4.3 | 11.3 | 0.00 | 0.29 | 0.29 | 67 | 1008.0 |
| 20260508213003 | 78 | 121 | 4.3 | 11.3 | 0.00 | 0.29 | 0.29 | 67 | 1008.1 |
| 20260508212503 | 78 | 118 | 4.3 | 9.6 | 0.00 | 0.29 | 0.29 | 67 | 1008.1 |
| 20260508212003 | 78 | 115 | 4.3 | 9.6 | 0.00 | 0.29 | 0.29 | 68 | 1008.1 |
| 20260508211712 | 77 | 116 | 4.3 | 8.7 | 0.00 | 0.29 | 0.29 | 67 | 1008.2 |
| 20260508211003 | 78 | 121 | 3.5 | 8.7 | 0.00 | 0.29 | 0.29 | 68 | 1008.4 |
| 20260508210503 | 78 | 121 | 2.6 | 7.0 | 0.00 | 0.29 | 0.29 | 67 | 1008.4 |
| 20260508210213 | 78 | 120 | 2.6 | 7.0 | 0.00 | 0.29 | 0.29 | 68 | 1008.6 |
| 20260508205503 | 77 | 119 | 2.6 | 7.0 | 0.00 | 0.29 | 0.29 | 68 | 1008.6 |
| 20260508205003 | 77 | 109 | 2.6 | 7.0 | 0.00 | 0.29 | 0.29 | 68 | 1008.6 |
| 20260508204503 | 77 | 90 | 2.6 | 6.1 | 0.00 | 0.29 | 0.29 | 68 | 1008.6 |
| 20260508204003 | 77 | 103 | 2.6 | 5.2 | 0.00 | 0.29 | 0.29 | 67 | 1008.6 |
| 20260508203503 | 77 | 125 | 2.6 | 8.7 | 0.00 | 0.29 | 0.29 | 69 | 1008.6 |
| 20260508203003 | 76 | 116 | 3.5 | 8.7 | 0.00 | 0.29 | 0.29 | 68 | 1009.2 |
| 20260508202503 | 75 | 105 | 3.5 | 8.7 | 0.00 | 0.29 | 0.29 | 71 | 1009.4 |
| 20260508202003 | 74 | 121 | 3.5 | 8.7 | 0.00 | 0.29 | 0.29 | 70 | 1009.7 |
| 20260508201503 | 74 | 132 | 3.5 | 9.6 | 0.00 | 0.29 | 0.29 | 71 | 1009.9 |
| 20260508201213 | 74 | 137 | 2.6 | 9.6 | 0.00 | 0.29 | 0.29 | 71 | 1010.1 |
| 20260508200503 | 74 | 132 | 2.6 | 7.8 | 0.00 | 0.29 | 0.29 | 71 | 1010.4 |
| 20260508200003 | 74 | 135 | 2.6 | 7.8 | 0.00 | 0.29 | 0.29 | 70 | 1010.5 |
| 20260508195714 | 74 | 146 | 2.6 | 6.1 | 0.00 | 0.29 | 0.29 | 70 | 1010.6 |
| 20260508195003 | 75 | 138 | 2.6 | 7.0 | 0.00 | 0.29 | 0.29 | 70 | 1010.4 |
| 20260508194503 | 75 | 120 | 3.5 | 7.0 | 0.00 | 0.29 | 0.29 | 70 | 1010.4 |
| 20260508194003 | 75 | 121 | 3.5 | 7.0 | 0.00 | 0.29 | 0.29 | 69 | 1010.4 |
| 20260508193503 | 75 | 130 | 2.6 | 7.0 | 0.00 | 0.29 | 0.29 | 69 | 1010.4 |
| 20260508193003 | 76 | 144 | 2.6 | 6.1 | 0.00 | 0.29 | 0.29 | 69 | 1010.3 |
| 20260508192503 | 75 | 140 | 2.6 | 6.1 | 0.00 | 0.29 | 0.29 | 69 | 1010.3 |
| 20260508192003 | 75 | 123 | 3.5 | 8.7 | 0.00 | 0.29 | 0.29 | 69 | 1010.4 |
| 20260508191503 | 76 | 123 | 3.5 | 8.7 | 0.00 | 0.29 | 0.29 | 69 | 1010.5 |
| 20260508191003 | 76 | 122 | 3.5 | 8.7 | 0.00 | 0.29 | 0.29 | 68 | 1010.5 |
| 20260508190503 | 76 | 120 | 3.5 | 7.8 | 0.00 | 0.29 | 0.29 | 68 | 1010.5 |
| 20260508190213 | 76 | 120 | 3.5 | 7.8 | 0.00 | 0.29 | 0.29 | 68 | 1010.5 |
| 20260508185503 | 76 | 126 | 2.6 | 7.8 | 0.00 | 0.29 | 0.29 | 67 | 1010.6 |
| 20260508185003 | 77 | 137 | 2.6 | 7.8 | 0.00 | 0.29 | 0.29 | 67 | 1010.6 |
| 20260508184503 | 76 | 146 | 2.6 | 5.2 | 0.00 | 0.29 | 0.29 | 67 | 1010.5 |
| 20260508184003 | 77 | 148 | 2.6 | 7.8 | 0.00 | 0.29 | 0.29 | 67 | 1010.6 |
| 20260508183503 | 78 | 147 | 2.6 | 7.8 | 0.00 | 0.29 | 0.29 | 66 | 1010.7 |
| 20260508183003 | 78 | 132 | 2.6 | 6.1 | 0.00 | 0.29 | 0.29 | 66 | 1010.8 |
| 20260508182503 | 77 | 141 | 2.6 | 7.0 | 0.00 | 0.29 | 0.29 | 66 | 1010.9 |
| 20260508182003 | 78 | 138 | 2.6 | 7.0 | 0.00 | 0.29 | 0.29 | 65 | 1011.0 |
| 20260508181713 | 78 | 131 | 2.6 | 7.0 | 0.00 | 0.29 | 0.29 | 66 | 1011.0 |
| 20260508181212 | 77 | 132 | 2.6 | 8.7 | 0.00 | 0.29 | 0.29 | 66 | 1011.1 |
| 20260508180503 | 77 | 144 | 2.6 | 7.0 | 0.00 | 0.29 | 0.29 | 64 | 1011.2 |
| 20260508180003 | 77 | 128 | 3.5 | 7.8 | 0.00 | 0.29 | 0.29 | 65 | 1011.2 |
| 20260508175503 | 76 | 124 | 3.5 | 7.8 | 0.00 | 0.29 | 0.29 | 66 | 1011.4 |
| 20260508175003 | 77 | 125 | 2.6 | 7.0 | 0.00 | 0.29 | 0.29 | 65 | 1011.6 |
| 20260508174713 | 77 | 131 | 2.6 | 7.8 | 0.00 | 0.29 | 0.29 | 65 | 1011.5 |